Wakefield, VA

10:54 PM EDT on July 28, 2016 (GMT -0400)
Wakefield Municipal

Weather History for KAKQ - January, 2013

Change the Weather History Date:

Friday, January 18, 2013

  Actual Average (KJGG) Record (KJGG)
Temperature  
Mean Temperature 34 °F -  
Max Temperature 42 °F 46 °F 70 °F (1990)
Min Temperature 27 °F 27 °F 3 °F (1957)
Degree Days  
Heating Degree Days 30    
Moisture  
Dew Point 28 °F    
Average Humidity 82    
Maximum Humidity 96    
Minimum Humidity 40    
Precipitation  
Precipitation 0.03 in - - ()
Sea Level Pressure  
Sea Level Pressure 30.35 in    
Wind  
Wind Speed 3 mph (NW)    
Max Wind Speed 9 mph    
Max Gust Speed 16 mph    
Visibility 5 miles    
Events Snow    
Averages and records for this station are not official NWS values.
T = Trace of Precipitation, MM = Missing Value Source: NWS Daily Summary

Daily Weather History Graph

Daily Weather History Graph

Search for Another Location

Airport or City:

Trip Planner

Search our weather history database for the weather conditions in past years. The results will help you decide how hot, cold, wet, or windy it might be!

Date:

Astronomy

Jan. 18, 2013 Rise Set
Actual Time 7:19 AM EST 5:18 PM EST
Civil Twilight 6:50 AM EST 5:46 PM EST
Nautical Twilight 6:19 AM EST 6:18 PM EST
Astronomical Twilight 5:48 AM EST 6:49 PM EST
Moon 11:08 AM EST (1/18) No Moon Set
Length of Visible Light 10h 55m
Length of Day
9h 59m
Waxing Crescent, 47% of the Moon is Illuminated
Jan 18
Waxing Crescent
Jan 18
First Quarter
Jan 26
Full
Feb 3
Last Quarter
Feb 10
New

Hourly Weather History & Observations

Time (EST) Temp. Windchill Dew Point Humidity Pressure Visibility Wind Dir Wind Speed Gust Speed Precip Events Conditions
12:12 AM 33.8 °F - 32.0 °F 93% 30.07 in 3.0 mi Calm Calm - 0.02 in Snow Light Snow
12:54 AM 33.1 °F 30.0 °F 32.0 °F 96% 30.12 in 9.0 mi North 3.5 mph - 0.02 in   Overcast
1:13 AM 33.8 °F 28.6 °F 32.0 °F 93% 30.14 in 1.8 mi Variable 5.8 mph - 0.00 in Snow Light Snow
1:22 AM 33.8 °F 28.6 °F 32.0 °F 93% 30.13 in 3.0 mi North 5.8 mph - 0.01 in Snow Light Snow
1:54 AM 33.1 °F - 32.0 °F 96% 30.14 in 10.0 mi Calm Calm - 0.01 in   Overcast
2:49 AM 33.8 °F 30.8 °F 32.0 °F 93% 30.17 in 2.5 mi Variable 3.5 mph - N/A   Overcast
2:54 AM 33.1 °F 28.7 °F 32.0 °F 96% 30.19 in 2.0 mi Variable 4.6 mph - N/A   Overcast
3:05 AM 33.8 °F 30.8 °F 32.0 °F 93% 30.18 in 1.8 mi Variable 3.5 mph - N/A   Overcast
3:54 AM 33.1 °F 27.7 °F 30.9 °F 92% 30.19 in 1.8 mi NNW 5.8 mph - N/A   Overcast
4:02 AM 33.8 °F 29.6 °F 30.2 °F 87% 30.18 in 2.0 mi NNW 4.6 mph - N/A   Overcast
4:54 AM 33.1 °F 28.7 °F 27.0 °F 78% 30.23 in 2.5 mi Variable 4.6 mph - N/A   Haze
5:16 AM 32.0 °F 25.6 °F 30.2 °F 93% 30.24 in 1.8 mi NW 6.9 mph - N/A   Overcast
5:24 AM 32.0 °F 26.4 °F 30.2 °F 93% 30.24 in 2.0 mi WNW 5.8 mph - N/A   Overcast
5:45 AM 33.8 °F 29.6 °F 30.2 °F 87% 30.25 in 3.0 mi WNW 4.6 mph - N/A   Overcast
5:54 AM 33.1 °F 30.0 °F 30.9 °F 92% 30.27 in 3.0 mi WNW 3.5 mph - N/A   Overcast
6:24 AM 32.0 °F 27.5 °F 30.2 °F 93% 30.28 in 2.5 mi WNW 4.6 mph - N/A   Overcast
6:54 AM 32.0 °F 28.7 °F 30.9 °F 96% 30.30 in 1.8 mi West 3.5 mph - N/A   Overcast
7:18 AM 32.0 °F - 28.4 °F 87% 30.31 in 2.5 mi Calm Calm - N/A   Overcast
7:38 AM 33.8 °F 30.8 °F 30.2 °F 87% 30.33 in 1.8 mi West 3.5 mph - N/A   Overcast
7:54 AM 33.1 °F 28.7 °F 30.0 °F 89% 30.36 in 2.0 mi WNW 4.6 mph - N/A   Overcast
8:27 AM 33.8 °F 30.8 °F 30.2 °F 87% 30.37 in 2.0 mi West 3.5 mph - N/A   Mostly Cloudy
8:47 AM 33.8 °F 30.8 °F 30.2 °F 87% 30.39 in 1.8 mi NW 3.5 mph - N/A   Overcast
8:54 AM 34.0 °F - 30.9 °F 89% 30.41 in 1.8 mi Calm Calm - N/A   Overcast
9:09 AM 33.8 °F - 30.2 °F 87% 30.41 in 2.0 mi Calm Calm - N/A   Mostly Cloudy
9:32 AM 35.6 °F - 30.2 °F 81% 30.43 in 3.0 mi Calm Calm - N/A   Scattered Clouds
9:50 AM 35.6 °F - 32.0 °F 87% 30.45 in 3.0 mi Calm Calm - N/A   Mostly Cloudy
9:54 AM 36.0 °F - 32.0 °F 86% 30.46 in 4.0 mi Calm Calm - N/A   Scattered Clouds
10:54 AM 39.0 °F 36.8 °F 30.9 °F 73% 30.48 in 6.0 mi Variable 3.5 mph - N/A   Haze
11:54 AM 39.0 °F 32.8 °F 25.0 °F 57% 30.47 in 10.0 mi NE 9.2 mph 16.1 mph N/A   Clear
12:54 PM 39.9 °F 33.9 °F 21.9 °F 49% 30.47 in 10.0 mi NNE 9.2 mph 16.1 mph N/A   Clear
1:54 PM 42.1 °F 37.7 °F 21.9 °F 45% 30.48 in 10.0 mi NNE 6.9 mph - N/A   Clear
2:54 PM 42.1 °F 40.2 °F 19.9 °F 41% 30.49 in 10.0 mi Variable 3.5 mph - N/A   Clear
3:54 PM 42.1 °F 39.2 °F 19.0 °F 40% 30.51 in 10.0 mi NNW 4.6 mph - N/A   Clear
4:54 PM 39.0 °F 35.7 °F 17.1 °F 41% 30.52 in 10.0 mi North 4.6 mph - N/A   Clear
5:54 PM 33.1 °F - 23.0 °F 66% 30.54 in 10.0 mi Calm Calm - N/A   Clear
6:54 PM 30.0 °F - 25.0 °F 82% 30.55 in 10.0 mi Calm Calm - N/A   Clear
7:54 PM 28.9 °F - 25.0 °F 85% 30.55 in 10.0 mi Calm Calm - N/A   Clear
8:54 PM 28.0 °F - 25.0 °F 88% 30.56 in 10.0 mi Calm Calm - N/A   Clear
9:54 PM 28.0 °F - 24.1 °F 85% 30.55 in 8.0 mi Calm Calm - N/A   Clear
10:54 PM 27.0 °F - 25.0 °F 92% 30.54 in 6.0 mi Calm Calm - N/A   Clear
11:54 PM 28.0 °F - 24.1 °F 85% 30.52 in 9.0 mi Calm Calm - N/A   Clear